FRS96 EDDL-EDDL

Flight info

Callsign FRS96
Flight time 0h 48m
Altitude 2200
Route DCT
Aircraft C172/L-DGY/L

Departure

Time 2026-05-07 18:06
Airport Düsseldorf Airport (EDDL)

Arrival

Time 2026-05-07 18:54
Airport Düsseldorf Airport (EDDL)
Time Latitude Longitude Altitude Speed Heading
2026-05-07 17:49 51.27535 6.75322 132 ft 0 kts 239°
2026-05-07 18:03 51.27534 6.75321 105 ft 2 kts 242°
2026-05-07 18:03 51.27576 6.75224 132 ft 21 kts 332°
2026-05-07 18:04 51.27692 6.75190 132 ft 14 kts
2026-05-07 18:04 51.27757 6.75241 132 ft 9 kts 53°
2026-05-07 18:04 51.27798 6.75325 131 ft 12 kts 51°
2026-05-07 18:04 51.27876 6.75323 127 ft 13 kts 333°
2026-05-07 18:05 51.27969 6.75275 125 ft 20 kts 11°
2026-05-07 18:05 51.28134 6.75566 127 ft 57 kts 52°
2026-05-07 18:05 51.28456 6.76206 205 ft 82 kts 50°
2026-05-07 18:05 51.28833 6.76848 494 ft 77 kts 46°
2026-05-07 18:06 51.29165 6.77593 658 ft 86 kts 60°
2026-05-07 18:06 51.29437 6.78440 913 ft 85 kts 58°
2026-05-07 18:06 51.29689 6.79264 1154 ft 88 kts 86°
2026-05-07 18:06 51.29327 6.80035 1232 ft 100 kts 161°
2026-05-07 18:07 51.28678 6.79755 1378 ft 99 kts 210°
2026-05-07 18:07 51.28097 6.79094 1422 ft 106 kts 218°
2026-05-07 18:07 51.27520 6.78318 1452 ft 111 kts 219°
2026-05-07 18:07 51.26918 6.77504 1426 ft 113 kts 219°
2026-05-07 18:08 51.26301 6.76724 1417 ft 111 kts 215°
2026-05-07 18:08 51.25610 6.76176 1399 ft 112 kts 195°
2026-05-07 18:08 51.24860 6.75969 1422 ft 107 kts 182°
2026-05-07 18:08 51.24097 6.76009 1382 ft 111 kts 172°
2026-05-07 18:09 51.23355 6.76189 1434 ft 108 kts 165°
2026-05-07 18:09 51.22610 6.76419 1467 ft 107 kts 167°
2026-05-07 18:09 51.21912 6.76629 1595 ft 98 kts 166°
2026-05-07 18:09 51.21259 6.76824 1721 ft 93 kts 167°
2026-05-07 18:10 51.20639 6.77008 1841 ft 90 kts 166°
2026-05-07 18:10 51.20040 6.77184 1955 ft 85 kts 166°
2026-05-07 18:10 51.19448 6.77373 1998 ft 94 kts 167°
2026-05-07 18:10 51.18785 6.77566 2013 ft 106 kts 167°
2026-05-07 18:11 51.18033 6.77796 2010 ft 113 kts 167°
2026-05-07 18:11 51.17514 6.77955 2010 ft 116 kts 167°
2026-05-07 18:11 51.16427 6.78301 2010 ft 120 kts 167°
2026-05-07 18:11 51.15617 6.78562 2002 ft 119 kts 166°
2026-05-07 18:12 51.15025 6.79335 1991 ft 114 kts 104°
2026-05-07 18:12 51.15285 6.80414 1987 ft 111 kts 32°
2026-05-07 18:12 51.16028 6.80694 1997 ft 110 kts 16°
2026-05-07 18:12 51.16751 6.81106 2000 ft 111 kts 21°
2026-05-07 18:13 51.17238 6.81379 1920 ft 112 kts 20°
2026-05-07 18:13 51.17971 6.81786 1793 ft 112 kts 20°
2026-05-07 18:13 51.18705 6.82187 1666 ft 111 kts 20°
2026-05-07 18:13 51.19435 6.82573 1530 ft 110 kts 16°
2026-05-07 18:14 51.20166 6.82533 1497 ft 103 kts 341°
2026-05-07 18:14 51.20813 6.82118 1494 ft 98 kts 344°
2026-05-07 18:14 51.21451 6.81759 1494 ft 96 kts 342°
2026-05-07 18:14 51.22033 6.81274 1494 ft 93 kts 320°
2026-05-07 18:15 51.22577 6.81033 1491 ft 83 kts 32°
2026-05-07 18:15 51.22830 6.81807 1493 ft 81 kts 84°
2026-05-07 18:15 51.22717 6.82694 1497 ft 84 kts 111°
2026-05-07 18:15 51.22418 6.83522 1502 ft 86 kts 119°
2026-05-07 18:16 51.22087 6.84318 1501 ft 86 kts 128°
2026-05-07 18:16 51.21714 6.85064 1501 ft 86 kts 124°
2026-05-07 18:16 51.21335 6.85812 1499 ft 87 kts 136°
2026-05-07 18:16 51.20873 6.86405 1495 ft 84 kts 125°
2026-05-07 18:17 51.20432 6.87027 1500 ft 87 kts 136°
2026-05-07 18:17 51.20032 6.87722 1493 ft 83 kts 115°
2026-05-07 18:17 51.19807 6.88559 1493 ft 82 kts 102°
2026-05-07 18:17 51.19761 6.89418 1492 ft 77 kts 67°
2026-05-07 18:18 51.19730 6.90238 1487 ft 78 kts 120°
2026-05-07 18:18 51.19284 6.90720 1486 ft 80 kts 159°
2026-05-07 18:18 51.18726 6.90810 1500 ft 86 kts 181°
2026-05-07 18:18 51.18190 6.90366 1506 ft 98 kts 246°
2026-05-07 18:19 51.18177 6.89272 1509 ft 102 kts 286°
2026-05-07 18:19 51.18622 6.88432 1506 ft 105 kts 321°
2026-05-07 18:19 51.19192 6.87673 1503 ft 107 kts 343°
2026-05-07 18:19 51.19880 6.87871 1509 ft 104 kts 42°
2026-05-07 18:20 51.19987 6.88942 1514 ft 107 kts 114°
2026-05-07 18:20 51.19604 6.89971 1508 ft 109 kts 128°
2026-05-07 18:20 51.19052 6.90818 1505 ft 111 kts 132°
2026-05-07 18:20 51.18567 6.91755 1563 ft 107 kts 124°
2026-05-07 18:21 51.18146 6.92680 1692 ft 97 kts 115°
2026-05-07 18:21 51.18111 6.93734 1785 ft 103 kts 70°
2026-05-07 18:21 51.18705 6.94401 1799 ft 116 kts 11°
2026-05-07 18:21 51.19503 6.94264 1799 ft 125 kts 329°
2026-05-07 18:22 51.19954 6.93068 1804 ft 128 kts 298°
2026-05-07 18:22 51.20358 6.92411 1799 ft 126 kts 334°
2026-05-07 18:22 51.21373 6.91477 1805 ft 128 kts 334°
2026-05-07 18:22 51.22107 6.90719 1806 ft 123 kts 327°
2026-05-07 18:23 51.22794 6.89949 1799 ft 119 kts 328°
2026-05-07 18:23 51.23470 6.89191 1801 ft 117 kts 326°
2026-05-07 18:23 51.23952 6.88182 1797 ft 116 kts 305°
2026-05-07 18:23 51.24421 6.87114 1799 ft 115 kts 308°
2026-05-07 18:24 51.24796 6.86005 1791 ft 115 kts 298°
2026-05-07 18:24 51.25173 6.84877 1794 ft 116 kts 302°
2026-05-07 18:24 51.25573 6.83755 1797 ft 116 kts 304°
2026-05-07 18:24 51.26061 6.82773 1795 ft 111 kts 313°
2026-05-07 18:25 51.26533 6.81815 1793 ft 109 kts 309°
2026-05-07 18:25 51.26645 6.80691 1790 ft 109 kts 242°
2026-05-07 18:25 51.26141 6.79832 1794 ft 107 kts 226°
2026-05-07 18:25 51.25644 6.78936 1800 ft 109 kts 227°
2026-05-07 18:26 51.25180 6.77981 1797 ft 109 kts 231°
2026-05-07 18:26 51.24831 6.76956 1794 ft 106 kts 269°
2026-05-07 18:26 51.25053 6.75877 1792 ft 104 kts 306°
2026-05-07 18:26 51.25526 6.75026 1798 ft 102 kts 317°
2026-05-07 18:27 51.26036 6.74248 1799 ft 100 kts 328°
2026-05-07 18:27 51.26615 6.73622 1789 ft 99 kts 343°
2026-05-07 18:27 51.27285 6.73487 1798 ft 98 kts 355°
2026-05-07 18:27 51.27966 6.73341 1797 ft 98 kts
2026-05-07 18:28 51.28635 6.73473 1790 ft 97 kts
2026-05-07 18:28 51.29322 6.73532 1801 ft 100 kts
2026-05-07 18:28 51.29986 6.73603 1896 ft 93 kts
2026-05-07 18:28 51.30622 6.73714 1991 ft 89 kts
2026-05-07 18:29 51.31249 6.73839 1996 ft 94 kts
2026-05-07 18:29 51.31922 6.73973 1998 ft 97 kts
2026-05-07 18:29 51.32600 6.74094 2004 ft 100 kts
2026-05-07 18:29 51.33289 6.74211 2009 ft 103 kts
2026-05-07 18:30 51.34005 6.74338 2009 ft 105 kts
2026-05-07 18:30 51.34742 6.74464 2011 ft 106 kts
2026-05-07 18:30 51.35477 6.74545 2005 ft 106 kts
2026-05-07 18:30 51.36197 6.74623 2008 ft 105 kts
2026-05-07 18:31 51.36924 6.74702 2006 ft 105 kts
2026-05-07 18:31 51.37653 6.74771 2006 ft 104 kts
2026-05-07 18:31 51.38382 6.74834 2008 ft 106 kts
2026-05-07 18:31 51.39125 6.74907 2012 ft 108 kts
2026-05-07 18:32 51.39879 6.74969 2010 ft 110 kts
2026-05-07 18:32 51.40599 6.75250 1993 ft 107 kts 43°
2026-05-07 18:32 51.40965 6.76255 2000 ft 105 kts 60°
2026-05-07 18:32 51.41309 6.77274 1997 ft 103 kts 75°
2026-05-07 18:33 51.41106 6.78327 1991 ft 106 kts 135°
2026-05-07 18:33 51.40563 6.79111 1991 ft 105 kts 143°
2026-05-07 18:33 51.39837 6.79140 1994 ft 108 kts 187°
2026-05-07 18:33 51.39102 6.78975 1999 ft 107 kts 180°
2026-05-07 18:34 51.38357 6.79007 1995 ft 106 kts 154°
2026-05-07 18:34 51.38037 6.79936 1989 ft 102 kts 77°
2026-05-07 18:34 51.38501 6.80742 1999 ft 102 kts 40°
2026-05-07 18:34 51.38991 6.81562 2005 ft 103 kts 53°
2026-05-07 18:35 51.39465 6.82454 1932 ft 111 kts 50°
2026-05-07 18:35 51.39983 6.83432 1782 ft 118 kts 51°
2026-05-07 18:35 51.40481 6.84492 1668 ft 120 kts 57°
2026-05-07 18:35 51.40887 6.85663 1524 ft 118 kts 67°
2026-05-07 18:36 51.40803 6.86933 1405 ft 120 kts 118°
2026-05-07 18:36 51.40405 6.88085 1302 ft 115 kts 126°
2026-05-07 18:36 51.40151 6.89228 1296 ft 108 kts 108°
2026-05-07 18:36 51.39702 6.90186 1286 ft 108 kts 130°
2026-05-07 18:37 51.39194 6.91074 1294 ft 107 kts 128°
2026-05-07 18:37 51.38644 6.91888 1291 ft 108 kts 137°
2026-05-07 18:37 51.38087 6.92685 1292 ft 108 kts 137°
2026-05-07 18:37 51.37501 6.93449 1299 ft 109 kts 137°
2026-05-07 18:38 51.36922 6.94211 1294 ft 109 kts 137°
2026-05-07 18:38 51.36338 6.94976 1296 ft 108 kts 137°
2026-05-07 18:38 51.35761 6.95756 1301 ft 107 kts 134°
2026-05-07 18:38 51.35609 6.96809 1295 ft 104 kts 65°
2026-05-07 18:39 51.36157 6.97531 1292 ft 105 kts 25°
2026-05-07 18:39 51.36802 6.98055 1295 ft 104 kts 23°
2026-05-07 18:39 51.37479 6.98441 1296 ft 105 kts 27°
2026-05-07 18:39 51.38134 6.98895 1407 ft 100 kts 26°
2026-05-07 18:40 51.38827 6.99359 1472 ft 114 kts 26°
2026-05-07 18:40 51.39527 6.99819 1628 ft 103 kts 25°
2026-05-07 18:40 51.40053 7.00356 1762 ft 89 kts 46°
2026-05-07 18:40 51.40461 7.01047 1893 ft 82 kts 51°
2026-05-07 18:41 51.40847 7.01716 1991 ft 84 kts 50°
2026-05-07 18:41 51.41211 7.02499 1990 ft 89 kts 75°
2026-05-07 18:41 51.41209 7.03498 1996 ft 92 kts 109°
2026-05-07 18:41 51.40681 7.04058 1999 ft 96 kts 157°
2026-05-07 18:42 51.40071 7.04525 2006 ft 99 kts 151°
2026-05-07 18:42 51.39429 7.04991 2011 ft 103 kts 152°
2026-05-07 18:42 51.38772 7.05483 2004 ft 108 kts 152°
2026-05-07 18:42 51.38083 7.05993 2004 ft 111 kts 151°
2026-05-07 18:43 51.37384 7.06508 2004 ft 111 kts 151°
2026-05-07 18:43 51.37245 7.06610 2003 ft 111 kts 151°
2026-05-07 18:43 51.36525 7.07142 2003 ft 109 kts 152°
2026-05-07 18:43 51.35791 7.07437 2005 ft 109 kts 168°
2026-05-07 18:44 51.35059 7.07415 1996 ft 110 kts 199°
2026-05-07 18:44 51.34343 7.06944 1995 ft 112 kts 195°
2026-05-07 18:44 51.33596 7.06556 1999 ft 114 kts 195°
2026-05-07 18:44 51.32842 7.06162 2001 ft 114 kts 195°
2026-05-07 18:45 51.32085 7.05756 1998 ft 114 kts 195°
2026-05-07 18:45 51.31332 7.05370 2005 ft 114 kts 194°
2026-05-07 18:45 51.30573 7.04978 1996 ft 114 kts 195°
2026-05-07 18:45 51.29824 7.04596 2000 ft 112 kts 195°
2026-05-07 18:46 51.29261 7.03799 1996 ft 111 kts 241°
2026-05-07 18:46 51.28948 7.02678 1985 ft 111 kts 270°
2026-05-07 18:46 51.29054 7.01483 1990 ft 108 kts 271°
2026-05-07 18:46 51.29022 7.00262 1999 ft 113 kts 268°
2026-05-07 18:47 51.28997 6.98996 2004 ft 115 kts 269°
2026-05-07 18:47 51.28970 6.97709 2007 ft 117 kts 269°
2026-05-07 18:47 51.28961 6.96416 1966 ft 121 kts 270°
2026-05-07 18:47 51.28958 6.95040 1865 ft 126 kts 271°
2026-05-07 18:48 51.28967 6.93636 1767 ft 127 kts 271°
2026-05-07 18:48 51.28972 6.92220 1667 ft 128 kts 270°
2026-05-07 18:48 51.28975 6.90800 1566 ft 128 kts 270°
2026-05-07 18:48 51.28980 6.89382 1510 ft 126 kts 270°
2026-05-07 18:49 51.28968 6.87985 1424 ft 127 kts 270°
2026-05-07 18:49 51.28920 6.86581 1297 ft 127 kts 256°
2026-05-07 18:49 51.28448 6.85409 1131 ft 127 kts 225°
2026-05-07 18:49 51.27846 6.84454 1117 ft 120 kts 223°
2026-05-07 18:50 51.27337 6.83500 1014 ft 123 kts 234°
2026-05-07 18:50 51.26928 6.82342 956 ft 114 kts 246°
2026-05-07 18:50 51.26631 6.81249 913 ft 100 kts 242°
2026-05-07 18:50 51.26285 6.80402 892 ft 87 kts 233°
2026-05-07 18:51 51.25923 6.79634 783 ft 90 kts 227°
2026-05-07 18:51 51.25509 6.78980 809 ft 81 kts 218°
2026-05-07 18:51 51.25052 6.78377 727 ft 86 kts 222°
2026-05-07 18:51 51.24709 6.77626 691 ft 85 kts 248°
2026-05-07 18:52 51.24757 6.76708 643 ft 92 kts 294°
2026-05-07 18:52 51.25053 6.75697 696 ft 107 kts 303°
2026-05-07 18:52 51.25510 6.74718 731 ft 109 kts 314°
2026-05-07 18:52 51.25990 6.73874 805 ft 91 kts 316°
2026-05-07 18:53 51.26400 6.73221 634 ft 85 kts 321°
2026-05-07 18:53 51.26860 6.72710 640 ft 72 kts 15°
2026-05-07 18:53 51.27144 6.73338 538 ft 73 kts 61°
2026-05-07 18:53 51.27402 6.73960 378 ft 65 kts 54°
2026-05-07 18:54 51.27668 6.74554 339 ft 73 kts 53°
2026-05-07 18:54 51.27965 6.75192 199 ft 66 kts 55°
2026-05-07 18:54 51.28197 6.75692 128 ft 45 kts 55°
2026-05-07 18:54 51.28333 6.76000 125 ft 16 kts 71°
2026-05-07 18:55 51.28280 6.76043 130 ft 17 kts 193°
2026-05-07 18:55 51.28205 6.76072 131 ft 13 kts 144°
2026-05-07 18:55 51.28123 6.76009 132 ft 22 kts 235°
2026-05-07 18:55 51.28003 6.75757 131 ft 36 kts 230°
2026-05-07 18:56 51.27856 6.75461 131 ft 31 kts 238°
2026-05-07 18:56 51.27753 6.75421 132 ft 22 kts 153°
2026-05-07 18:56 51.27606 6.75530 132 ft 23 kts 160°
2026-05-07 18:56 51.27506 6.75597 132 ft 9 kts 183°
2026-05-07 18:57 51.27466 6.75469 132 ft 14 kts 265°
2026-05-07 18:57 51.27466 6.75370 132 ft 11 kts 280°
2026-05-07 18:57 51.27515 6.75308 132 ft 10 kts 335°
2026-05-07 18:57 51.27532 6.75333 132 ft 6 kts 60°
2026-05-07 18:58 51.27537 6.75326 132 ft 0 kts 230°